sat.trackr.live / text

‹ back to catalog

ONEWEB-0060

NORAD 45455 · 2020-020AH

PAYLOAD ACTIVE UNKNOWN

§ Identity

Operator
Country
UK
Launch date
2020-03-21
Launch site
TYMSC
Launch vehicle
Mass (kg)
RCS (m²)

Purposes: comms

External: N2YO · Heavens-Above · Gunter

§ Orbital elements

Epoch: 2026-09-20T02:04:03.550944Z

Period
109.80 min
Inclination
87.8969°
Eccentricity
0.0002583
Mean motion
13.11419025 rev/d
Perigee alt
1,215.7 km
Apogee alt
1,219.6 km
Semi-major
7,595.8 km
B*
-9.8462e-4
RAAN
2.2026°
Arg perigee
85.7523°
Mean anomaly
274.3900°
Rev number
31,498

§ Raw data

ONEWEB-00601 45455U 20020AH  26263.08615221 -.00000336  00000+0 -98462-3 0  99962 45455  87.8969   2.2026 0002583  85.7523 274.3900 13.11419025314989

JSON: /api/v1/satellites/45455 · /tle

For live sub-satellite position, see the globe view (requires WebGL).

§ Visibility from observer

Set your observer location to see the next 7 days of passes ≥ 10°. The values pass through the URL so the page stays shareable.

No JS? Fill the form by hand. The geolocation button needs JavaScript.